< < Back
Terminal Aerodrome Forecast


Current Version              Previous Versions:   1  2  3  4  5  6  7  8  9  

Terminal Aerodrome Forecast

707
FTUS42 KJAX 240500
TAFJAX
TAF
KJAX 240520Z 2406/2506 19005KT 6SM BR SCT015 BKN060 WS015/22035KT
     FM240900 20004KT 3SM BR BKN006 OVC012
      TEMPO 2409/2413 1SM BR OVC003
     FM241500 21012G20KT P6SM VCSH BKN020
     FM242300 23007KT P6SM VCSH BKN025=



Latest METAR

884
SAUS80 KWBC 241300 CCA
MTRJAX
METAR KJAX 241256Z 19010KT 8SM BKN011 22/22 A2991 RMK AO2 SLP130
T02220222


USA.gov is the U.S. government's official web portal to all federal, state and local government web resources and services.